Dewpoint
27 30 32 31 32 35 35 33 32 33 34 33 35 37 40 50 52 53 54 55 53 54 55 57 60 61 62 65 66 68 65 68 68 68 67 67 67 68 69 70 75 75 74 75
23 27 30 33 32 33 34 34 32 33 35 31 30 33 37 46 50 51 52 53 55 55 55 57 59 60 62 65 67 68 70 69 70 67 68 68 68 68 68 70 74 75 75 75
17 19 26 32 33 31 33 33 32 31 31 31 32 30 39 42 48 51 50 51 53 55 54 54 57 59 61 63 66 68 71 71 71 71 70 71 71 72 71 70 71 73 74 73
13 18 25 29 30 30 29 34 31 30 28 26 29 22 30 38 44 48 50 50 50 53 54 53 52 55 57 61 64 68 70 72 73 73 72 74 69 67 67 68 68 71 73 74
12 17 23 25 24 29 29 31 30 28 27 25 24 23 24 27 27 30 48 47 49 51 52 54 53 54 55 58 61 65 69 72 73 73 75 71 72 67 68 68 72 76 75 75
12 17 19 21 22 26 28 26 25 25 23 22 21 21 21 24 26 27 35 41 48 51 52 54 55 56 57 58 61 64 68 72 73 73 74 74 73 71 68 70 75 78 79 78
12 13 15 19 22 25 25 20 20 18 16 19 18 20 22 23 22 32 41 44 48 51 52 53 55 56 58 60 62 64 69 72 73 73 73 73 74 74 73 74 74 77 77 77
7 10 12 14 16 14 19 13 12 19 16 16 16 14 15 23 25 41 47 49 51 53 53 53 55 57 59 61 63 65 68 71 72 72 73 74 75 71 71 71 70 75 72 69
6 9 11 12 13 14 17 14 9 8 10 7 7 14 16 32 38 44 46 51 53 55 55 54 54 56 58 61 63 65 67 71 72 71 73 74 74 74 71 73 73 69 71 70
10 12 10 10 9 11 13 15 12 10 13 15 10 13 21 32 40 40 44 46 50 54 56 56 57 57 58 59 61 64 66 70 70 69 71 72 73 74 73 73 75 75 74 73
8 10 13 12 13 15 12 11 11 6 9 9 11 16 23 39 42 41 43 45 47 47 49 50 53 57 58 60 61 63 64 66 68 68 70 71 71 72 73 72 75 75 74 74
13 7 12 11 14 13 13 14 10 10 21 10 10 16 36 42 42 42 44 46 46 48 48 52 53 57 58 60 62 64 65 64 66 67 71 70 71 72 71 71 74 74 74 74
13 9 14 17 18 17 14 14 6 6 8 18 11 18 41 43 50 53 51 49 50 51 51 52 55 58 59 61 66 66 66 66 66 68 68 69 71 71 71 72 73 74 74 73
29 8 17 14 22 23 22 18 15 8 11 15 10 22 42 47 52 55 57 57 57 56 54 54 55 57 61 64 68 69 69 68 69 69 69 71 72 72 73 74 74 74 74 73
12 20 25 26 26 25 25 22 13 15 17 16 21 23 45 53 55 57 59 60 62 63 63 64 62 63 63 65 69 70 71 74 74 73 73 72 73 73 74 74 74 75 74 73
18 30 29 28 27 27 28 25 12 14 20 28 27 37 50 56 55 55 55 56 58 59 60 65 68 69 66 64 67 70 71 73 74 74 74 75 76 74 74 75 74 75 73 73
23 27 29 27 28 26 27 30 35 36 39 33 29 47 52 53 53 54 54 54 54 55 55 57 61 64 68 64 67 69 72 73 74 75 73 75 76 74 74 74 74 73 72 71
32 30 28 29 32 25 31 40 39 36 40 39 43 48 50 53 53 51 51 53 54 56 57 59 57 58 65 67 65 70 72 73 74 73 72 74 75 74 75 74 74 73 71 71
33 31 30 27 26 29 29 38 37 34 31 41 40 48 49 50 51 53 50 51 53 55 57 57 57 57 68 70 72 71 72 73 73 72 72 72 73 73 73 73 72 71 70 70
32 34 31 31 28 26 28 34 42 40 30 42 46 46 45 50 43 47 50 52 53 55 58 59 59 60 60 70 72 73 73 73 73 73 73 74 74 73 73 72 72 73 70 69
35 37 32 32 30 29 36 41 43 35 38 46 47 48 48 46 47 50 53 53 55 57 56 60 62 65 67 73 72 72 73 73 73 73 75 76 76 74 74 69 68 68 67 70
38 36 33 34 34 33 39 43 39 48 52 51 53 52 48 49 51 52 53 55 56 57 56 59 63 66 68 73 73 73 73 74 75 75 75 75 74 71 68 67 66 65 63 64
36 39 39 39 41 50 47 49 49 47 51 54 55 52 50 48 48 50 52 52 52 54 56 59 64 64 65 68 71 71 73 75 75 75 73 70 69 67 67 68 67 64 63 62
45 45 41 44 46 48 48 49 50 51 50 51 51 51 50 48 48 48 48 49 51 53 54 57 62 64 65 68 70 72 74 75 75 73 69 68 67 66 68 68 67 65 64 63
42 44 43 43 46 48 49 50 50 49 50 50 49 49 48 48 48 49 50 52 53 55 56 58 62 66 68 69 70 71 73 73 73 70 68 67 68 67 68 68 67 65 64 62
41 40 38 37 45 47 47 51 51 51 50 50 50 51 52 51 50 51 51 53 56 58 60 61 62 65 67 69 71 71 72 73 71 69 67 67 67 68 67 64 63 54 56 53
Lifted_Index
6 5 3 2 0 -0 -1 -1 -1 0 1 1 1 0 -1 -2 -3 -4 -4 -4 -3 -3 -2 -3 -3 -3 -3 -3 -4 -3 -2 -2 -3 -3 -3 -3 -4 -4 -5 -6 -6 -6 -6 -6
6 5 3 2 1 0 -0 -1 -1 0 1 1 1 0 -1 -2 -3 -3 -4 -4 -3 -3 -3 -3 -3 -3 -3 -3 -4 -4 -3 -3 -3 -3 -3 -4 -4 -5 -5 -5 -6 -6 -6 -6
5 5 4 3 2 1 -0 -1 -1 0 1 1 1 -0 -1 -2 -2 -3 -3 -3 -3 -3 -3 -3 -3 -3 -3 -3 -4 -4 -4 -4 -4 -4 -4 -4 -5 -5 -5 -5 -5 -6 -6 -6
5 5 5 4 3 2 0 -0 0 1 1 1 0 -0 -1 -1 -2 -2 -3 -3 -3 -3 -3 -3 -2 -2 -3 -3 -3 -4 -4 -4 -5 -4 -4 -5 -5 -5 -5 -5 -5 -6 -6 -6
5 5 5 5 4 3 2 1 1 1 1 -0 -0 -0 -1 -1 -1 -1 -2 -2 -2 -3 -3 -3 -3 -2 -3 -3 -3 -4 -4 -5 -5 -5 -5 -5 -5 -4 -4 -5 -5 -6 -6 -7
5 6 5 5 4 4 3 2 2 1 0 -0 -0 -0 -0 -1 -0 -0 -0 -1 -2 -3 -3 -3 -3 -3 -3 -3 -3 -4 -4 -5 -5 -5 -5 -5 -5 -5 -5 -5 -6 -6 -7 -7
5 5 5 5 5 4 4 2 1 -0 -0 -1 -0 -0 -0 -0 0 0 -0 -1 -2 -3 -3 -3 -3 -3 -3 -3 -4 -4 -4 -5 -5 -5 -5 -6 -6 -6 -6 -5 -5 -6 -6 -7
3 3 4 4 4 4 3 2 0 -1 -1 -1 -0 0 0 0 0 -1 -1 -2 -3 -3 -3 -3 -3 -4 -4 -4 -4 -4 -5 -5 -5 -5 -5 -6 -6 -6 -5 -5 -5 -5 -6 -6
2 2 3 4 4 3 3 2 0 -1 -1 -1 -0 -0 0 0 -0 -1 -2 -3 -3 -4 -4 -4 -4 -4 -4 -5 -5 -5 -5 -5 -5 -6 -6 -6 -6 -6 -5 -5 -5 -5 -5 -6
1 1 2 3 3 3 2 1 0 -0 -1 -1 -1 -1 -0 -0 -0 -1 -2 -3 -3 -3 -4 -4 -4 -4 -4 -5 -5 -5 -5 -5 -5 -6 -6 -6 -6 -6 -5 -5 -5 -6 -5 -5
2 1 1 2 3 2 2 1 -0 -0 -1 -1 -1 -1 -1 -1 -1 -1 -1 -2 -2 -3 -3 -3 -3 -3 -4 -5 -5 -5 -5 -5 -5 -6 -6 -6 -6 -6 -6 -6 -6 -6 -5 -5
2 1 0 1 2 1 1 0 -0 -1 -1 -1 -1 -1 -1 -1 -2 -2 -2 -2 -2 -2 -2 -3 -3 -3 -4 -4 -5 -5 -5 -5 -5 -6 -6 -6 -6 -6 -6 -6 -6 -6 -5 -5
1 0 -0 0 1 1 0 -0 -1 -1 -1 -1 -1 -1 -1 -2 -3 -4 -4 -3 -3 -3 -3 -3 -3 -4 -4 -4 -4 -5 -5 -5 -5 -6 -6 -6 -6 -6 -6 -6 -6 -6 -5 -5
1 0 -0 -0 0 0 0 0 -0 -1 -1 -1 -1 -1 -2 -4 -5 -5 -6 -6 -5 -5 -5 -5 -5 -5 -4 -5 -5 -5 -6 -6 -6 -6 -7 -7 -7 -6 -6 -7 -6 -6 -5 -5
1 0 0 0 0 0 0 0 0 -0 -0 -1 -1 -1 -3 -5 -5 -6 -6 -6 -7 -7 -7 -7 -7 -7 -6 -5 -6 -6 -7 -7 -7 -7 -7 -7 -7 -7 -7 -7 -7 -6 -6 -5
1 0 0 0 0 0 0 0 -0 -0 -1 -1 -1 -2 -4 -5 -6 -5 -5 -6 -6 -6 -6 -7 -8 -8 -7 -6 -6 -7 -8 -8 -8 -8 -8 -8 -8 -7 -7 -7 -7 -6 -5 -5
1 0 0 -0 0 0 -0 -1 -1 -1 -1 -1 -2 -4 -5 -6 -5 -5 -4 -4 -4 -4 -4 -5 -6 -7 -8 -7 -6 -7 -8 -8 -9 -8 -8 -8 -8 -8 -8 -7 -7 -6 -5 -5
0 0 -0 -0 -0 -0 -1 -1 -2 -2 -2 -2 -3 -4 -5 -5 -5 -4 -3 -3 -3 -3 -3 -3 -4 -5 -7 -8 -7 -8 -8 -8 -8 -8 -7 -8 -8 -8 -8 -8 -7 -6 -5 -4
0 -0 -0 -0 -0 -0 -1 -1 -2 -2 -2 -2 -3 -4 -4 -4 -4 -3 -2 -2 -2 -2 -3 -3 -3 -4 -6 -8 -8 -8 -9 -8 -8 -8 -7 -7 -8 -8 -8 -7 -7 -6 -5 -4
-0 -0 -1 -1 -1 -0 -1 -1 -2 -2 -1 -2 -3 -3 -3 -3 -2 -2 -1 -1 -1 -1 -2 -3 -4 -4 -6 -8 -9 -9 -9 -9 -9 -8 -8 -8 -8 -8 -7 -7 -6 -5 -4 -4
-0 -1 -1 -1 -1 -1 -1 -1 -2 -2 -2 -3 -3 -3 -2 -2 -1 -1 -0 -0 -1 -1 -2 -3 -4 -5 -6 -7 -8 -9 -9 -9 -9 -9 -9 -9 -9 -8 -7 -6 -5 -4 -3 -3
-0 -0 -1 -1 -1 -1 -1 -1 -1 -2 -3 -3 -3 -3 -2 -1 -0 0 0 0 0 -0 -1 -3 -4 -5 -6 -7 -8 -8 -9 -9 -9 -9 -9 -9 -8 -7 -6 -5 -4 -3 -2 -2
1 0 -0 -1 -1 -1 -1 -1 -1 -2 -2 -3 -2 -2 -1 -0 0 1 1 1 1 1 -0 -2 -3 -4 -5 -5 -6 -7 -8 -8 -9 -9 -8 -8 -8 -7 -6 -5 -4 -3 -1 -1
1 1 0 -0 -1 -1 -1 -1 -1 -1 -1 -1 -1 -1 -0 0 1 1 1 1 1 1 0 -1 -2 -3 -4 -4 -5 -6 -7 -7 -8 -7 -7 -7 -7 -7 -6 -5 -4 -2 -0 0
2 1 1 1 0 -0 -0 -0 -0 -0 -0 -0 -0 0 0 1 1 1 1 1 1 1 0 -1 -2 -3 -4 -4 -5 -5 -6 -6 -6 -6 -7 -7 -7 -6 -6 -5 -4 -2 -0 1
2 2 1 1 1 0 0 -0 -0 -0 0 0 0 0 0 0 1 1 1 1 1 0 -0 -1 -1 -3 -4 -4 -5 -5 -6 -6 -6 -6 -6 -6 -6 -6 -5 -4 -3 -2 0 1